Regional Weather Roundup
Issued by NWS Pendleton, OR

Home | Current Version | Previous Version | Text Only | Print | Product List | Glossary On
Versions: 1 2 3 4 5 6 7 8 9 10 11 12 13 14 15 16 17 18 19 20 21 22 23 24 25 26 27 28 29 30 31 32 33 34 35 36 37 38 39 40 41 42 43 44 45 46 47 48 49 50
000
ASUS46 KPDT 070910
RWRPDT
PENDLETON REGIONAL WEATHER ROUNDUP
NATIONAL WEATHER SERVICE PENDLETON OREGON
200 AM PDT TUE JUL 7 2015

NOTE: FAIR INDICATES FEW OR NO CLOUDS BELOW 12,000 FEET WITH NO
SIGNIFICANT WEATHER AND/OR OBSTRUCTIONS TO VISIBILITY.

# INDICATES UNOFFICIAL STATION AND DATA

WAZ520-071010-
EAST SLOPES OF WASHINGTON CASCADES

CITY            SKY/WX      TMP DP  RH  WIND    PRES   REMARKS
#BULLFROG 2SW   N/A         60  50  69  CALM    27.61F
#BUMPING DAM    N/A         62  N/A N/A NW7     N/A
#CLE ELUM HS    N/A         68  49  51  W3      29.93S
#CLE ELUM LAKE  N/A         66  42  42  CALM    29.82F
#CLIFFDEL 2NW   N/A         62  50  65  N2      N/A
#EASTON DOT     N/A         64  49  58  SW3     N/A
#ELK HTS DOT    N/A         71  71  100 W6      N/A
#GLENWOOD       N/A         57  51  80  CALM    29.87S
#MANASTASH CYN  N/A         69  69  100 CALM    29.97F
#NELSON         N/A         65  53  65  CALM    29.88S
#NELSON 3SW     N/A         61  50  67  CALM    30.04S
#NILE           N/A         69  52  55  W1      29.17F
#PEOH POINT     N/A         62  49  62  W7      N/A
#RONALD 2NW     N/A         64  45  50  N1      29.90F
#SNOWDEN        N/A         65  43  45  CALM    N/A
#TEANAWAY 4NE   N/A         62  47  58  NW2     N/A
#TROUT LAKE 1NE N/A         62  53  72  CALM    29.88S
$$

WAZ521-071010-
SIMCOE HIGHLANDS

CITY            SKY/WX      TMP DP  RH  WIND    PRES   REMARKS
#BICKLETON HS   N/A         72  31  22  CALM    N/A
#SATUS PASS DOT N/A         63  46  54  CALM    N/A
#CENTERVILLE 4W N/A         72  54  53  W5      29.72S
#CENTERVILLE 1SWN/A         71  54  55  W7      29.82R
#GOLDENDALE     N/A         74  51  44  W3      N/A
#GOLDENDALE 5WNWN/A         73  55  53  W7      29.83S
#GOODNOE HILLS  N/A         77  56  48  W12     N/A
#LYLE 6NE       N/A         72  56  57  SW7     29.84S
$$

WAZ026-071010-
KITTITAS VALLEY

CITY            SKY/WX      TMP DP  RH  WIND    PRES   REMARKS
ELLENSBURG AP   PTCLDY      72  48  43  NW10    29.94S
YTC-OPS AREA    N/A         69  44  40  W35G45  29.93F
#ELLENSBURG CWU N/A         73  50  44  N12     29.79F
#ELLENSBURG 3NE N/A         71  49  46  N6      29.93S
#ELLENSBURG 1E  N/A         73  47  40  CALM    N/A
#KITTITAS 3S    N/A         67  53  61  CALM    29.83S
#MANASTASH RDG  N/A         70  70  100 N9      N/A
#RYEGRASS DOT   N/A         69  51  53  W17     N/A
#THORP 6N       N/A         67  50  54  N14     29.83F
$$

WAZ027-071010-
YAKIMA VALLEY

CITY            SKY/WX      TMP DP  RH  WIND    PRES   REMARKS
SUNNYSIDE AP    PTCLDY      70  54  57  W6      29.87R
YAKIMA AIRPORT  PTCLDY      76  51  42  NW10    29.90F SMOKE
#DONALD 2NE     N/A         76  38  25  N2      28.74S
#GRANDVIEW      N/A         76  52  43  CALM    29.84S
#MABTON         N/A         74  54  50  W1      29.87R
#MOXEE 2E       N/A         73  34  24  CALM    29.85R
#NACHES 2SW     N/A         73  54  51  W9      29.95S
#TERRACE HTS    N/A         73  50  44  CALM    29.79S
#TOPPENISH      N/A         75  54  48  CALM    29.75S
#WAPATO 4NE     N/A         76  38  25  N2      28.74S
#WEST VALLEY    N/A         76  51  42  NW6     29.80F
#WHITE SWAN 5E  N/A         68  51  55  CALM    29.83S
#WILEY CITY 3W  N/A         66  44  45  CALM    29.88F
$$

WAZ028-071010-
LOWER COLUMBIA BASIN...WASHINGTON

CITY            SKY/WX      TMP DP  RH  WIND    PRES   REMARKS
PASCO           PTCLDY      79  49  35  CALM    29.85R
RICHLAND AWOS   PTCLDY      79  54  42  W8      29.84R
#BASIN CITY 5SW N/A         78  52  40  NW9     29.83S
#BENTON CITY    N/A         76  53  45  W10     29.71R
#CONNELL 5N     N/A         74  49  41  NW1     29.78S
#CONNELL 5NW    N/A         73  52  48  NW2     29.76S
#ELTOPIA 6NW    N/A         75  52  45  NW7     28.83R
#KAHLOTUS       N/A         78  45  31  NW5     29.78S
#KENNEWICK      N/A         60  50  69  CALM    27.61F
#KENNEWICK 3S   N/A         80  52  38  SW1     29.82R
#PATERSON       N/A         75  57  54  CALM    29.82R
#PROSSER DOT    N/A         76  50  40  W7      N/A
#PROSSER        N/A         81  47  30  W5      29.81S
#SAGEMOOR 2W    N/A         79  52  39  W5      29.65R
#TOUCHET 2S     N/A         79  54  42  SW10    29.80R
#WEST PASCO     N/A         81  51  35  CALM    29.81R
$$

WAZ029-071010-
FOOTHILLS OF THE BLUES...WASHINGTON

CITY            SKY/WX      TMP DP  RH  WIND    PRES   REMARKS
WALLA WALLA AP  CLEAR       81  48  32  S12     29.90R
#DAYTON SCHOOL  N/A         72  41  33  E5      29.91S
#LOWDEN 2SE     N/A         76  54  46  SW2     29.83R
#PLEASANT VIEW 1N/A         77  46  33  SW7     29.81S
#PRESCOTT       N/A         78  52  40  CALM    29.78S
#SUDBURY        N/A         76  N/A N/A CALM    N/A
#WHITMAN COLLEGEN/A         80  51  36  S5      29.87R
#WAITSBURG 5S   N/A         77  47  35  S7      29.88S
#WAITSBURG 8N   N/A         75  21  13  S3      29.71S
#WALLA WALLA U  N/A         82  52  35  S3      29.82R
$$

WAZ030-071010-
BLUE MOUNTAINS...WASHINGTON

CITY            SKY/WX      TMP DP  RH  WIND    PRES   REMARKS
$$

ORZ009-041-WAZ024-071010-
COLUMBIA RIVER GORGE

CITY            SKY/WX      TMP DP  RH  WIND    PRES   REMARKS
HOOD RIVER AP   CLEAR       73  57  57  NW14    29.94S
THE DALLES AP   PTCLDY      80  56  44  NW15    29.90R
#ARLINGTON AIRPON/A         78  56  47  W9      32.48S
#ARLINGTON HS   N/A         82  55  40  S3      29.73R
#CELILO DOT     N/A         82  58  44  SW7     N/A
#MARYHILL       N/A         77  56  48  CALM    N/A
#MOSIER 1S      N/A         75  46  36  W8      29.91S
#MURDOCK        N/A         77  61  58  NW13    29.91R
#RUFUS DOT      N/A         83  58  43  W15     N/A

$$

ORZ510-071010-
NORTH CENTRAL OREGON

CITY            SKY/WX      TMP DP  RH  WIND    PRES   REMARKS
#CHENOWITH 1W   N/A         70  56  61  NW21    N/A
#COW CYN RST AREN/A         73  N/A N/A NW3     N/A
#DUFUR 9E       N/A         70  55  59  N2      29.90R
#GRASS VALLEY 1SN/A         66  47  50  NW1     29.88R
#KENT DOT       N/A         67  47  49  SW6     N/A
#MAUPIN SCHOOL  N/A         76  54  46  CALM    29.95R
#MORO SCHOOL    N/A         73  62  68  W8      29.98S
#SHANIKO 5WSW   N/A         70  47  44  S3      N/A
#SHANIKO 4NW    N/A         69  48  47  CALM    30.08S
#TYGH VALLEY 2NEN/A         70  53  55  CALM    29.86R
#WAPANITIA AIRPON/A         72  54  53  NW5     29.87R
#WASCO DOT      N/A         77  59  54  W10     N/A
#WASCO 5NE      N/A         75  57  54  W12     29.84S
$$

ORZ511-071010-
CENTRAL OREGON

CITY            SKY/WX      TMP DP  RH  WIND    PRES   REMARKS
BEND AIRPORT    N/A         N/A N/A N/A MISG    N/A
MADRAS AIRPORT  PTCLDY      64  52  65  CALM    30.05R
PRINEVILLE AP   PTCLDY      59  46  62  SW5     30.06S
REDMOND AIRPORT PTCLDY      60  54  81  S5      30.05F
#BEND 1SW       N/A         58  49  72  CALM    N/A
#BEND-AWBREY    N/A         64  55  73  CALM    29.88S
#BEND-KIM LN    N/A         64  55  73  S2      30.06S
#LAKE BILLY CHINN/A         69  33  26  CALM    30.08R
#POWELL BUTTE 3EN/A         66  50  56  S2      N/A
#POWELL BUTTE   N/A         68  48  49  S2      29.70F
#PRINEVILLE 3N  N/A         60  53  78  N2      29.84S
#WARM SPRINGS   N/A         74  56  53  CALM    29.96R

$$


ORZ509-071010-
EAST SLOPES OF OREGON CASCADES

CITY            SKY/WX      TMP DP  RH  WIND    PRES   REMARKS
#BLUE BOX PASS  N/A         60   6  11  NW2     N/A
#CAMP SHERMAN   N/A         62  50  65  CALM    29.86R
#LA PINE 4NW    N/A         52  46  80  CALM    29.93S
#SISTERS AIRPOR N/A         61  56  84  N1      30.17S
#SISTERS ODOT   N/A         60  N/A N/A SW6     N/A
#SISTERS 3N     N/A         62  51  67  CALM    30.07S
#SUNRIVER       N/A         54  53  96  CALM    29.80S
#TUMALO 3W      N/A         67  51  56  SW2     29.75S
#WANOGA BUTTE D N/A         63  43  48  E1      N/A

$$

ORZ044-071010-
LOWER COLUMBIA BASIN...OREGON

CITY            SKY/WX      TMP DP  RH  WIND    PRES   REMARKS
HERMISTON       PTCLDY      79  52  39  SW14    29.87R
#BOARDMAN SCHOOLN/A         80  53  39  S7      29.86S
#BOARDMAN 8SW   N/A         76  58  54  SW7     29.84R
#ECHO 8SW       N/A         79  53  41  SW7     29.89R
#IONE SCHOOL    N/A         79  53  41  SW12    29.88S
#IRRIGON 4NW    N/A         74  56  53  S7      N/A
#UMATILLA SCHOOLN/A         N/A N/A N/A N9      N/A
#UMATILLA       N/A         77  55  47  CALM    29.77R
$$

ORZ507-071010-
NORTHERN FOOTHILLS OF THE BLUES

CITY            SKY/WX      TMP DP  RH  WIND    PRES   REMARKS
PENDLETON AIRPT CLEAR       79  48  34  SW12    29.92R
#ADAMS 3WNW     N/A         73  49  43  SW1     29.82R
#ATHENA         N/A         76  48  37  CALM    29.85S
#CAYUSE         N/A         76  49  39  E3      29.82R
#HELIX SCHOOL   N/A         74  49  41  SW2     29.83R
#HELIX 3N       N/A         72  48  43  S6      29.92R
#HOLDMAN 6E     N/A         75  52  45  NW1     29.64R
#M-F GROVE ELEM N/A         79  44  29  S5      29.90S
#M-FREEWATER 5SEN/A         74  52  46  CALM    29.91S
#PENDLETON DNTN N/A         80  43  27  S1      29.90R
#PDT AQUATIC CTRN/A         79  45  30  CALM    29.95S
#PDT SUNRIDGE   N/A         77  47  35  CALM    29.92R
#PENDLETON 7NW  N/A         79  55  44  W12     N/A
#PILOT ROCK     N/A         77  44  31  S5      29.97S
#TUTUILLA       N/A         71  48  44  S5      29.87S
#UMAPINE 2E     N/A         79  53  41  SW2     29.84S
#WESTON SCHOOL  N/A         73  44  35  CALM    29.83R

$$

ORZ508-071010-
SOUTHERN FOOTHILLS OF THE BLUES

CITY            SKY/WX      TMP DP  RH  WIND    PRES   REMARKS
#AJAX           N/A         74  49  41  SW7     29.93S
#CONDON SCHOOL  N/A         71  50  47  SW1     29.99S
#CONDON 5W      N/A         69  48  47  NW8     30.02S
#FOSSIL SCHOOL  N/A         67  46  47  CALM    29.98S
#HEPPNER EOC    N/A         76  48  37  S1      29.79S
#HEPPNER 4NE    N/A         72  48  43  SW3     29.84R
#LEXINGTON 2SE  N/A         76  51  42  CALM    29.93R
#RUGGS 5NE      N/A         71  43  36  SW3     30.20S
#RUGGS 2SW      N/A         72  46  39  CALM    29.85S

$$

ORZ502-503-071010-
BLUE MOUNTAINS

CITY            SKY/WX      TMP DP  RH  WIND    PRES   REMARKS
MEACHAM         PTCLDY      56  48  74  CALM    30.07F
#BATTLE MTN DOT N/A         67  53  61  SW6     N/A
#HEPPNER 15SE   N/A         64  44  48  CALM    30.01F
#LONG CREEK HS  N/A         65  50  58  CALM    30.03S
#N POWDER DOT   N/A         59  51  75  S3      N/A
#PIKES PEAK     N/A         73  45  37  SW22    27.99S
#TOLLGATE       N/A         64  43  46  SW1     30.05S
#TROY SCHOOL    N/A         70  50  49  CALM    29.69S
#UKIAH          N/A         60  49  67  CALM    29.91S
#WESTON 4E      N/A         72  46  39  S1      29.76F
$$

ORZ505-071010-
JOHN DAY BASIN

CITY            SKY/WX      TMP DP  RH  WIND    PRES   REMARKS
JOHN DAY        MOCLDY      73  46  38  E5      30.07F
#JOHN DAY KJDY  N/A         71  67  87  E1      30.08R
#DAYVILLE SCHOOLN/A         75  50  41  CALM    29.98S
#MITCHELL       N/A         70  53  55  CALM    30.21S
#MONUMENT HS    N/A         73  51  46  CALM    29.98S
#MT. VERNON 5SE N/A         72  46  39  CALM    30.04F
#WINLOCK        N/A         71  43  36  CALM    30.12R
$$

ORZ506-071010-
OCHOCO AND JOHN DAY HIGHLANDS

CITY            SKY/WX      TMP DP  RH  WIND    PRES   REMARKS
#BUCK CREEK DOT N/A         68  68  100 N9      N/A
#HORSE RIDGE DO N/A         55  44  66  CALM    N/A
#KEYES SMT DOT  N/A         69  47  45  N8      N/A
#PAULINA SCHOOL N/A         73  46  38  W2      30.04F
#PINE MTN OBS   N/A         60  48  64  NW1     N/A
#PRAIRIE CITY   N/A         61  50  67  CALM    30.00R
#SENECA         N/A         67  N/A N/A CALM    N/A
#SENECA 9NW     N/A         66  45  47  CALM    29.83F
$$

ORZ049-071010-
GRANDE RONDE VALLEY

CITY            SKY/WX      TMP DP  RH  WIND    PRES   REMARKS
LA GRANDE       CLEAR       73  43  34  N10     30.00S
#COVE           N/A         68  52  57  NE3     30.01F
#ELGIN 3N       N/A         60  44  55  CALM    29.98S
#ELGIN 1E       N/A         62  48  60  CALM    N/A
#IMBLER SCHOOL  N/A         68  50  53  CALM    29.95S
#ISLAND CITY 4N N/A         61  56  84  CALM    30.01S
#LADD CYN DOT   N/A         75  49  40  CALM    N/A
#UNION 1S       N/A         63  48  58  CALM    29.75F
$$

ORZ050-071010-
WALLOWA COUNTY

CITY            SKY/WX      TMP DP  RH  WIND    PRES   REMARKS
#IMNAHA SCHOOL  N/A         74  45  35  SW3     29.95R
#IMNAHA 10S     N/A         76  51  42  SW3     30.01S
#JOSEPH 3N      N/A         55  46  72  NE2     30.08F
#JOSEPH 3W      N/A         67  44  43  SW1     29.94F
#LOSTINE        N/A         60  49  67  CALM    29.66S
#MT HOWARD 8000 N/A         57  40  53  W3      30.36F
#PROMISE 1S     N/A         75  48  38  NE6     29.88F
#WALLOWA SCHOOL N/A         58  51  77  CALM    29.98F



$$



USA.gov is the U.S. government's official web portal to all federal, state and local government web resources and services.